Home > Time Zones > World Clock > Weather > Spain > Palma > Past weeks

Flag for Spain Weather past 2 weeks in Palma, Majorca, Spain

Now
61 °F

Clear.


Feels Like: 61 °F
Forecast: 57 / 67 °F
Wind: 6 mph from Southwest

Location: Palma De Mallorca / Son San Juan

Current Time: Apr 27, 2015 at 11:21:29 PM

Latest Report: Apr 27, 2015 at 11:00 PM


Visibility: 10 mi

Pressure: 29.83 "Hg

Humidity: 83%

Dew point: 55 °F

Location of PalmaLocation

Historic Weather in Palma — Graph

°F

Palma temperature yesterday

Maximum temperature yesterday: 70 °F (at 3:30 PM)
Minimum temperature yesterday: 59 °F (at 7:00 AM)
Average temperature yesterday: 65 °F

Past Weeks' High & Low Weather Summary

 TemperatureHumidityPressure
High77 °F (Apr 14, 2:00 PM)100% (Apr 13, 1:00 AM)30.42 "Hg (Apr 13, 1:00 AM)
Low41 °F (Apr 14, 7:30 AM)29% (Apr 21, 4:30 PM)29.65 "Hg (Apr 27, 3:30 AM)
Average61 °F75%30.06 "Hg
* Reported Apr 12 10:00 PM — Apr 27 10:00 PM, Palma, Weather by CustomWeather, © 2015

Note: Actual official high and low records may vary slightly from our data, if they occured in-between our weather recording intervals... More about our weather records

Advertising

Palma weather history for previous 24 hours

 ConditionsComfort  
Time TempWeatherWind HumidityBarometerVisibility
10:00 PM
Mon, Apr 27
63 °FPassing clouds.9 mph77%29.83 "HgN/A
9:30 PM63 °FSunny.9 mph77%29.80 "Hg10 mi
9:00 PM64 °FSunny.10 mph68%29.80 "Hg10 mi
8:30 PM64 °FSunny.13 mph73%29.80 "Hg10 mi
8:00 PM66 °FSunny.14 mph64%29.77 "Hg10 mi
7:30 PM68 °FPassing clouds.15 mph60%29.77 "HgN/A
7:00 PM70 °FPassing clouds.18 mph53%29.77 "HgN/A
6:30 PM70 °FPassing clouds.17 mph50%29.77 "HgN/A
6:00 PM70 °FPassing clouds.20 mph53%29.77 "HgN/A
5:30 PM70 °FPassing clouds.21 mph53%29.77 "HgN/A
5:00 PM70 °FPassing clouds.21 mph50%29.77 "HgN/A
4:30 PM70 °FPassing clouds.21 mph46%29.77 "HgN/A
4:00 PM70 °FScattered clouds.22 mph53%29.77 "HgN/A
3:30 PM70 °FScattered clouds.21 mph50%29.77 "HgN/A
3:00 PM68 °FScattered clouds.20 mph43%29.77 "HgN/A
2:30 PM68 °FScattered clouds.18 mph40%29.77 "HgN/A
2:00 PM68 °FScattered clouds.21 mph40%29.74 "HgN/A
1:30 PM68 °FScattered clouds.20 mph46%29.74 "HgN/A
1:00 PM68 °FPassing clouds.18 mph49%29.74 "HgN/A
12:30 PM68 °FPassing clouds.22 mph46%29.74 "HgN/A
12:00 PM68 °FPassing clouds.18 mph49%29.74 "HgN/A
11:30 AM66 °FPassing clouds.17 mph56%29.74 "HgN/A
11:00 AM64 °FPassing clouds.13 mph73%29.71 "HgN/A
10:30 AM63 °FPassing clouds.10 mph83%29.71 "HgN/A
10:00 AM64 °FRain. Passing clouds.13 mph73%29.71 "HgN/A
9:30 AM64 °FScattered clouds.8 mph68%29.71 "HgN/A
9:00 AM63 °FScattered clouds.9 mph73%29.68 "HgN/A
8:30 AM63 °FPassing clouds.12 mph77%29.68 "HgN/A
8:00 AM61 °FPassing clouds.14 mph77%29.68 "HgN/A
7:30 AM61 °FPassing clouds.17 mph77%29.65 "HgN/A
7:00 AM61 °FPassing clouds.21 mph72%29.65 "HgN/A
6:30 AM61 °FPassing clouds.20 mph72%29.65 "HgN/A
6:00 AM61 °FPassing clouds.23 mph72%29.65 "HgN/A
5:30 AM61 °FPassing clouds.22 mph72%29.65 "HgN/A
5:00 AM61 °FPassing clouds.20 mph72%29.65 "HgN/A
4:30 AM61 °FPassing clouds.17 mph68%29.68 "HgN/A
4:00 AM61 °FPassing clouds.15 mph72%29.65 "HgN/A
3:30 AM61 °FPassing clouds.12 mph83%29.65 "HgN/A
3:00 AM59 °FPassing clouds.2 mph94%29.68 "HgN/A
2:30 AM61 °FPassing clouds.3 mph88%29.68 "HgN/A
2:00 AM63 °FPassing clouds.5 mph88%29.68 "HgN/A
1:30 AM63 °FLight rain. Passing clouds.6 mph94%29.71 "HgN/A
1:00 AM63 °FRain. Passing clouds.7 mph88%29.74 "Hg5 mi
12:30 AM63 °FHeavy rain. Passing clouds.10 mph100%29.71 "Hg2 mi
12:00 AM64 °FPassing clouds.7 mph88%29.71 "HgN/A
11:30 PM
Sun, Apr 26
64 °FPassing clouds.3 mph88%29.71 "HgN/A
11:00 PM64 °FPassing clouds.3 mph88%29.71 "HgN/A
Weather by CustomWeather, © 2015

See weather overviewHow to use our weather pages